Content
SEND FEEDBACK

Daily
Averages
Monthly
Summary
Fiji

NATALAU, FIJI


Home > Oceania > Fiji
Elevation: 59 feet     Latitude: 17 45S     Longitude: 177 27E

WEATHER
 
SELECT A DAY
Number of Records: 179,210;   Date Range: 7/1/96 - 7/20/14
 
SHARE

PRINT THIS DATA

[ ← Previous Day ]
WEATHER ALMANAC - FEBRUARY 13, 2013
[ Next Day → ]
[ °C ]   °F
Weather ElementAverageHighLow
Temperature80.3 °F89.6 °F (1:00 pm)73 °F (3:00 am)
Dewpoint73.6 °F77 °F (1:00 pm)69.8 °F (4:00 am)
Humidity79.8 %94 % (2:00 am)61 % (9:00 am)
Barometer29.84 in29.89 in (10:00 pm)29.80 in (2:00 pm)
Wind Speed7 mph17.3 mph (1:00 pm)
Weather ElementAverage
Visibility23.8 mi
Wind DirectionSSE (157 °)

Weather ElementTotal
Precipitation---
Cooling Degree Days16.3 (Base 65)
Growing Degree Days31.3 (Base 50)
Averaged from 31 records on February 13, 2013
WEATHER CONDITIONS BREAKOUT
WIND DIRECTION BREAKOUT
WEATHER BY HOUR - FEBRUARY 13, 2013
[ °C ]   °F
Local TimeTemperatureDewpointHumidityBarometerVisibilityWind DirectionWind SpeedGust SpeedPrecipitationEventsConditions
12:00 AM75.2 °F71.6 °F89 %29.86 in24.9 miESE (120°)3.5 mphPartly Cloudy
1:00 AM75.2 °F71.6 °F89 %29.86 in24.9 miSE (140°)3.5 mphPartly Cloudy
2:00 AM73.4 °F71.6 °F94 %29.83 in24.9 miSSE (150°)5.8 mphPartly Cloudy
3:00 AM73.0 °F71.0 °F93 %29.84 in12.0 miESE (120°)5.8 mphPartly Cloudy
3:00 AM73.4 °F71.6 °F94 %29.83 in24.9 miESE (120°)5.8 mphPartly Cloudy
4:00 AM73.4 °F69.8 °F88 %29.83 in24.9 miSE (130°)4.6 mphPartly Cloudy
5:00 AM73.4 °F71.6 °F94 %29.83 in24.9 miESE (110°)6.9 mphPartly Cloudy
6:00 AM73.4 °F71.6 °F94 %29.83 in24.9 miESE (120°)6.9 mphPartly Cloudy
6:00 AM73.0 °F71.0 °F91 %29.85 in12.0 miESE (120°)6.9 mphPartly Cloudy
7:00 AM73.4 °F71.6 °F94 %29.83 in24.9 miESE (110°)5.8 mphPartly Cloudy
8:00 AM78.8 °F73.4 °F83 %29.86 in24.9 miESE (110°)4.6 mphPartly Cloudy
9:00 AM84.0 °F72.0 °F61 %29.86 in12.0 miCalmPartly Cloudy
9:00 AM84.2 °F73.4 °F70 %29.86 in24.9 miCalmPartly Cloudy
10:00 AM86.0 °F73.4 °F66 %29.86 in24.9 miNNE (20°)3.5 mphPartly Cloudy
11:00 AM86.0 °F75.2 °F70 %29.86 in24.9 miWest (270°)10.4 mphPartly Cloudy
12:00 PM86.0 °F75.2 °F70 %29.83 in24.9 miWest (270°)11.5 mphPartly Cloudy
12:00 PM86.0 °F75.0 °F62 %29.85 in12.0 miWest (270°)11.5 mphPartly Cloudy
1:00 PM89.6 °F77.0 °F66 %29.83 in31.1 miWest (280°)17.3 mphPartly Cloudy
2:00 PM87.8 °F75.2 °F66 %29.80 in31.1 miWNW (290°)15.0 mphPartly Cloudy
3:00 PM88.0 °F77.0 °F63 %29.81 in31.0 miWNW (290°)15.0 mphPartly Cloudy
3:00 PM87.8 °F77.0 °F70 %29.80 in31.1 miWNW (290°)15.0 mphPartly Cloudy
4:00 PM87.8 °F77.0 °F70 %29.80 in31.1 miWest (270°)9.2 mphPartly Cloudy
5:00 PM87.8 °F75.2 °F66 %29.80 in31.1 miWest (280°)9.2 mphPartly Cloudy
6:00 PM84.2 °F73.4 °F70 %29.83 in28.0 miEast (80°)9.2 mphScattered Clouds
6:00 PM85.0 °F74.0 °F61 %29.84 in12.0 miEast (80°)9.2 mphPartly Cloudy
7:00 PM78.8 °F73.4 °F83 %29.83 in28.0 miSE (140°)5.8 mphScattered Clouds
8:00 PM77.0 °F75.2 °F94 %29.86 in24.9 miSE (130°)3.5 mphPartly Cloudy
9:00 PM77.0 °F75.0 °F91 %29.88 in12.0 miESE (120°)3.5 mphPartly Cloudy
9:00 PM77.0 °F75.2 °F94 %29.86 in24.9 miESE (120°)3.5 mphPartly Cloudy
10:00 PM77.0 °F73.4 °F89 %29.89 in24.9 miSSE (160°)3.5 mphPartly Cloudy
11:00 PM77.0 °F73.4 °F89 %29.89 in24.9 miCalmPartly Cloudy
Hourly data recorded from NFFN, located miles away from Natalau, Fiji







STORIES FROM OUR PARTNERS